Flag for Russia Weather past 2 weeks in Yekaterinburg, Russia

Now
16 °F

Clear.


Feels Like: 16 °F
Forecast: 6 / 29 °F
Wind: 1 mph from East

Location: Ekaterinburg

Current Time: Mar 3, 2015 at 12:31:23 AM

Latest Report: Mar 3, 2015 at 12:00 AM


Visibility: 4 mi

Pressure: 30.30 "Hg

Humidity: 86%

Dew point: 12 °F

Location of YekaterinburgLocation

Historic Weather in Yekaterinburg — Graph

°F

Yekaterinburg temperature yesterday

Maximum temperature yesterday: 45 °F (at 2:30 PM)
Minimum temperature yesterday: 5 °F (at 6:30 AM)
Average temperature yesterday: 21 °F

Past Weeks' High & Low Weather Summary

 TemperatureHumidityPressure
High45 °F (Mar 2, 2:30 PM)100% (Feb 25, 4:00 AM)30.54 "Hg (Feb 25, 4:00 AM)
Low-17 °F (Feb 17, 8:30 AM)18% (Mar 2, 2:30 PM)29.68 "Hg (Feb 21, 4:00 AM)
Average21 °F75%30.21 "Hg
* Reported Feb 15 11:00 PM — Mar 2 11:30 PM, Yekaterinburg, Weather by CustomWeather, © 2015

Note: Actual official high and low records may vary slightly from our data, if they occured in-between our weather recording intervals... More about our weather records

Advertising

Yekaterinburg weather history for previous 24 hours

 ConditionsComfort  
Time TempWeatherWind HumidityBarometerVisibility
11:30 PM
Mon, Mar 2
16 °FClear.3 mph79%30.30 "Hg10 mi
11:00 PM16 °FClear.3 mph86%30.33 "Hg10 mi
10:30 PM19 °FClear.1 mph73%30.33 "Hg10 mi
10:00 PM21 °FClear.3 mph74%30.30 "Hg10 mi
9:30 PM21 °FClear.3 mph74%30.33 "Hg10 mi
9:00 PM23 °FClear.3 mph68%30.33 "Hg10 mi
8:30 PM27 °FClear.3 mph64%30.33 "Hg10 mi
8:00 PM28 °FClear.1 mph59%30.30 "Hg10 mi
7:30 PM28 °FSunny.1 mph64%30.30 "Hg10 mi
7:00 PM30 °FSunny.3 mph59%30.30 "Hg10 mi
6:30 PM32 °FSunny.3 mph51%30.30 "Hg10 mi
6:00 PM36 °FSunny.6 mph41%30.30 "Hg10 mi
5:30 PM39 °FSunny.1 mph30%30.30 "Hg10 mi
5:00 PM41 °FSunny.1 mph24%30.30 "Hg10 mi
4:30 PM41 °FSunny.1 mph26%30.30 "Hg10 mi
4:00 PM41 °FSunny.1 mph26%30.33 "Hg10 mi
3:30 PM41 °FSunny.1 mph20%30.33 "Hg10 mi
3:00 PM41 °FSunny.No wind20%30.33 "Hg10 mi
2:30 PM45 °FSunny.No wind18%30.33 "Hg10 mi
2:00 PM41 °FSunny.1 mph22%30.33 "Hg10 mi
1:30 PM41 °FSunny.No wind33%30.36 "Hg10 mi
12:00 PM34 °FSunny.No wind44%30.36 "Hg10 mi
11:30 AM28 °FSunny.No wind51%30.36 "Hg10 mi
11:00 AM23 °FSunny.No wind68%30.36 "Hg10 mi
10:30 AM19 °FPartly sunny.No wind73%30.36 "Hg4 mi
10:00 AM18 °FPartly sunny.No wind79%30.36 "Hg4 mi
9:30 AM14 °FPartly sunny.No wind85%30.36 "Hg4 mi
9:00 AM9 °FPartly sunny.No wind92%30.36 "Hg4 mi
8:30 AM7 °FPassing clouds.1 mph92%30.36 "Hg4 mi
8:00 AM5 °FPassing clouds.No wind85%30.36 "Hg4 mi
7:30 AM5 °FPassing clouds.1 mph92%30.36 "Hg4 mi
7:00 AM9 °FPassing clouds.No wind85%30.36 "Hg4 mi
6:30 AM5 °FPassing clouds.No wind92%30.36 "Hg4 mi
6:00 AM7 °FPassing clouds.No wind85%30.36 "Hg4 mi
5:30 AM7 °FPassing clouds.1 mph85%30.36 "Hg4 mi
5:00 AM7 °FPassing clouds.No wind85%30.36 "Hg4 mi
4:30 AM9 °FPassing clouds.1 mph85%30.36 "Hg4 mi
4:00 AM10 °FPassing clouds.No wind79%30.36 "Hg4 mi
3:30 AM9 °FPassing clouds.No wind92%30.36 "Hg4 mi
3:00 AM10 °FPassing clouds.No wind85%30.36 "Hg4 mi
2:30 AM10 °FPassing clouds.No wind79%30.36 "Hg4 mi
2:00 AM10 °FPassing clouds.No wind79%30.36 "Hg4 mi
1:30 AM12 °FIce fog.No wind79%30.39 "Hg3 mi
12:30 AM14 °FPassing clouds.No wind79%30.36 "Hg4 mi
12:00 AM16 °FPassing clouds.No wind79%30.36 "Hg4 mi
Weather by CustomWeather, © 2015

See weather overviewHow to use our weather pages